Location: Kershaw
(34.5481°N, 80.5823°W)
Time: 09:34:10
(UTC+00:00)

Altair - Pass Details

Date: 06 October 2022
Orbit: 1501 x 1682 km, 47.2° (Epoch: 30 November)

Event Time Altitude Azimuth Distance (km) Brightness Sun altitude
Rises 17:30:29 0° 298° (WNW) 4,926 10.0 49.9°
Reaches altitude 10° 17:34:07 10° 289° (WNW) 3,943 9.7 49.8°
Maximum altitude 17:42:32 31° 232° (SW) 2,639 9.8 49.4°
Drops below altitude 10° 17:50:53 10° 175° (S) 3,900 10.5 49.0°
Sets 17:54:30 0° 166° (SSE) 4,865 10.7 48.8°
